Погода Пушкинские Горы

Погода Пушкинские Горы : погода сейчас, прогноз погоды и архив. Всё, что Вы хотите узнать о погоде Пушкинские Горы!

Хотите узнать прогноз погоды Пушкинские Горы? Тогда Вам сюда: Погода Пушкинские Горы

Поиск расширенной информации на нашем сайте:

Другие новости

Новости СМИ2

Главная страница сайта

Новости сайта

03.07.2017

Напоминаем, что на нашем специализированном сайте Метеоцентр.Азия вы можете получить высокодетализированные автоматические прогнозы погоды по пунктам России, СНГ и мира в авиационном формате (включающие направление и скорость ветра, видимость, явления погоды, количество и форму облачности, нижнюю и верхнюю границу облачности).

Рекомендуем: Купить перила для лестниц http://www.artmetal-kovka.ru.

Погода Пушкинские Горы - сегодня

Время (UTC), дата Ветер
(°,м/с) 
Видим.   Явления Облачность Т
(°С)
Тd
(°С)
f(%) Тe
(°С)
Pmin
(гПа)
dP
(гПа)
Po
(мм)
O2
(г/м3)
Тmin Tmax R s Состояние
почвы
03 21.09.17 080 (В) 20000 м    9/9 300 м кучево-дожд. 
[Cb cap]
+11.4 +10 91 +12  1023.4  -0.4  758  292  +11.4         
06 21.09.17 060 (СВ) 20000 м  {ливн. осадки}  6/0 верхняя 
[Ci fib]
+12.3 +10 86 +14  1023  -0.4  758  290  +11.1    0.0    влажная 
09 21.09.17 090 (В) 20000 м    8/3 1000 м средняя 
[Cu hum|Ac trans]
+15.9 +9.5 66 +16  1022.9  0.1  758  287           
12 21.09.17 070 (В) 5-10{10}  20000 м    9/5 600 м кучево-дожд., средняя 
[Cb cap|Ac trans]
+15.9 +9.2 64 +16  1021.7  -1.2  757  287           
15 21.09.17 070 (В) 4{10}  20000 м    10/10 300 м кучево-дожд. 
[Cb cap]
+15 +8.6 66 +15  1021.5  0.1  757  288      0.0     
18 21.09.17 080 (В) 3{12}  20000 м  в посл. час гроза{ливн. осадки}  10/10 300 м кучево-дожд. 
[Cb cap]
+13.6 +9.7 77 +15  1021.2  -0.4  757  289    +16.5  0.0     
21 21.09.17 080 (В) 20000 м    3/3 600 м кучево-дожд. 
[Cb cap]
+12.9 +9.8 81 +14  1022.2  758  290           
00 22.09.17 080 (В) 20000 м    ясно 
+12.3 +9.1 81 +12  1022.7  0.5  758  291           
03 22.09.17 080 (В) 20000 м    3/0 средняя 
[Ac trans]
+11.2 +8.6 84 +11  1023.8  759  292  +11.2    0.0     
06 22.09.17 100 (В) 20000 м    8/0 средняя, верхняя 
[Ac trans|Ci fib]
+12.2 +8.4 78 +13  1023.7  -0.1  759  291  +11.1        влажная 
09 22.09.17 100 (В) 20000 м    4/0 верхняя 
[Ci fib]
+17 +10.5 66 +19  1024.3  -0.1  759  286           
12 22.09.17 090 (В) 20000 м    ясно 
+18.8 +10.9 60 +21  1023.8  -0.1  759  284           
15 22.09.17 090 (В) 2{10}  10 км    3/0 верхняя 
[Ci fib]
+17.7 +10.3 62 +20  1024.5  0.6  759  285           
18 22.09.17 080 (В) 10 км    ясно 
+14 +8.8 71 +15  1025.9  1.3  760  290    +19       
21 22.09.17 070 (В) 10 км    ясно 
+11.1 +8.5 84 +12  1027.8  1.7  762  293           
00 23.09.17 070 (В) 10 км    ясно 
+9.2 +7.6 90 +10  1028.1  0.1  762  296           
03 23.09.17 070 (В) 10 км    ясно 
+7.7 +6.5 92 +9  1028.4  0.3  762  298  +7.7         
06 23.09.17 070 (В) 20000 м    1/0 верхняя 
[Ci fib]
+8.9 +6.1 83 +8  1029  0.6  762  297  +7.2        влажная 
09 23.09.17 080 (В) 20000 м    1/0 верхняя 
[Ci fib]
+13.3 +7.7 69 +13  1029.5  0.7  763  292           
12 23.09.17 080 (В) 20000 м    1/0 верхняя 
[Ci fib]
+16.6 +8.8 60 +17  1028.9  -0.4  763  288           
15 23.09.17 080 (В) 20000 м    ясно 
+16.4 +8.7 60 +18  1029.7  0.8  763  289           
18 23.09.17 080 (В) 20000 м    ясно 
+12.6 +8.3 75 +12  1030.8  0.9  764  293    +17.3       
21 23.09.17 080 (В) 20000 м    ясно 
+10 +7.2 83 +10  1032  765  296           
00 24.09.17 060 (СВ) 20000 м    ясно 
+8.6 +6.6 87 +10  1032.6  0.5  765  298           
03 24.09.17 020 (С) 20000 м    ясно 
+6.1 +5.5 96 +7  1033  0.3  765  301  +5.8         
Время (UTC), дата Ветер
(°,м/с) 
Видим.   Явления Облачность Т
(°С)
Тd
(°С)
f(%) Тe
(°С)
Pmin
(гПа)
dP
(гПа)
Po
(мм)
O2
(г/м3)
Тmin Tmax R s Состояние
почвы

Для получения пояснительной информации подведите курсор к названию столбца.

ПОГОДА Пушкинские Горы - архив

Всё, что Вы хотите узнать о погоде Пушкинские Горы - удобно и подробно!

Выберите нужную дату (начиная с 1 января 2015* года) и нажмите кнопку "Найти".
Будут отображены архивные сводки погоды по пункту Пушкинские Горы, начиная с указанной даты.


Отображать данные в формате CSV (для использования в таблицах Excel)


Внимание! Наш архив погоды предназначен исключительно для личного некоммерческого использования в познавательных целях. Если Вам необходимы официальные справки о состоянии погоды (для производственных, юридических, коммерческих и т.п. целей), обращайтесь в органы Росгидромета.

*Примечание: данная дата относится к архиву по метеостанциям СССР (Россия, СНГ, Балтия).
Архив по метеостанциям Зарубежной Европы и Азии (кроме Китая) хранится 10 дней, по другим регионам земного шара (Китай, Африка, Америка, Австралия, Океания) - 1 день.

Пушкинские Горы - район местоположения метеостанции


Название, широта, долгота, высота метеостанции:
Пушкинские Горы 57°ш. 28.9°д. 108 м над ур. моря [Российская Федерация]

Дополнительная информация

В oтличие oт бoльшинства пoгoдных сайтoв мы публикуем пoдрoбную метеoинфoрмацию в детальнoм прoфессиoнальнoм фoрмате.

Характеристики температуры и влажнoсти вoздуха измеряются на высoте 2 м в тени вдали oт зданий и деревьев.
Скoрoсть ветра измеряется на высoте 10 м (на урoвне рoста челoвека скoрoсть ветра ниже в 1.5-2 раза). Если метеoстанция нахoдится в гoрoде или в лесу, тo скoрoсть ветра занижена на 2-4 м/с пo сравнению с oткрытым местoм. Скoрoсть ветра над акватoриями крупных рек и oзёр, а также на вершинах хoлмoв на 2-5 м/с выше, чем в oбычных услoвиях.
Атмoсфернoе давление в разных тoчках местнoсти мoжет значительнo oтличаться oт давления на метеoстанции, в зависимoсти oт услoвий рельефа (при пoдъёме на 10 м давление пoнижается примернo на 1 мм рт.ст.).